,,Stat6,,Stat2,,Stat8,,Stat9,,Stat10,,Wind1,,Wind1,
time,status,PA1M_AVG,status,PR1M_SUM,status,RH1M_AVG,status,SR1M_AVG,status,TA1M_AVG,status,W1dAve1m,status,W1sAve1m,
2009-01-09, 00:00:00,VALID,919.795,VALID,0,VALID,99.0669,VALID,-0.0509425,VALID,19.879,VALID,148,VALID,0.123183,
2009-01-09, 00:01:00,VALID,919.781,VALID,0,VALID,99.1686,VALID,-0.0509425,VALID,19.8625,VALID,136,VALID,0.00114329,
2009-01-09, 00:02:00,VALID,919.771,VALID,0,VALID,99.3098,VALID,-0.0169808,VALID,19.8298,VALID,149,VALID,0.0024858,
2009-01-09, 00:03:00,VALID,919.754,VALID,0,VALID,99.5247,VALID,0,VALID,19.7939,VALID,148,VALID,0,
2009-01-09, 00:04:00,VALID,919.744,VALID,0,VALID,99.7154,VALID,-0.0169808,VALID,19.762,VALID,148,VALID,0,
2009-01-09, 00:05:00,VALID,919.736,VALID,0,VALID,99.8896,VALID,-0.0169808,VALID,19.7362,VALID,158,VALID,0,
2009-01-09, 00:06:00,VALID,919.756,VALID,0,VALID,100,VALID,-0.0339617,VALID,19.72,VALID,147,VALID,0,
2009-01-09, 00:07:00,VALID,919.763,VALID,0,VALID,100,VALID,-0.0339617,VALID,19.6938,VALID,142,VALID,0.0885417,
2009-01-09, 00:08:00,VALID,919.788,VALID,0,VALID,100,VALID,-0.0339617,VALID,19.6481,VALID,147,VALID,0.249256,
2009-01-09, 00:09:00,VALID,919.79,VALID,0,VALID,100,VALID,-0.0509425,VALID,19.6294,VALID,133,VALID,0.321875,
2009-01-09, 00:10:00,VALID,919.812,VALID,0,VALID,100,VALID,-0.0339617,VALID,19.603,VALID,131,VALID,0.0706522,
2009-01-09, 00:11:00,VALID,919.822,VALID,0,VALID,100,VALID,-0.0509425,VALID,19.6032,VALID,130,VALID,0.00213068,
2009-01-09, 00:12:00,VALID,919.822,VALID,0,VALID,100,VALID,-0.0339617,VALID,19.5997,VALID,126,VALID,0.040516,
2009-01-09, 00:13:00,VALID,919.819,VALID,0,VALID,100,VALID,-0.0169808,VALID,19.5995,VALID,116,VALID,0.0410156,
2009-01-09, 00:14:00,VALID,919.81,VALID,0,VALID,100,VALID,-0.0169808,VALID,19.6129,VALID,116,VALID,0.0617378,
2009-01-09, 00:15:00,VALID,919.803,VALID,0,VALID,100,VALID,-0.0509425,VALID,19.6227,VALID,113,VALID,0.00133384,
2009-01-09, 00:16:00,VALID,919.771,VALID,0,VALID,100,VALID,-0.0169808,VALID,19.6259,VALID,120,VALID,0.141406,
2009-01-09, 00:17:00,VALID,919.749,VALID,0,VALID,100,VALID,-0.0169808,VALID,19.6357,VALID,126,VALID,0.00117188,
2009-01-09, 00:18:00,VALID,919.716,VALID,0,VALID,100,VALID,-0.0509425,VALID,19.6287,VALID,129,VALID,0.132031,
2009-01-09, 00:19:00,VALID,919.7,VALID,0,VALID,100,VALID,-0.0339617,VALID,19.6384,VALID,136,VALID,0.33125,
2009-01-09, 00:20:00,VALID,919.671,VALID,0,VALID,100,VALID,0,VALID,19.6474,VALID,145,VALID,0.466264,
2009-01-09, 00:21:00,VALID,919.637,VALID,0,VALID,100,VALID,-0.0339617,VALID,19.6674,VALID,138,VALID,0.22561,
2009-01-09, 00:22:00,VALID,919.627,VALID,0,VALID,100,VALID,-0.0339617,VALID,19.6773,VALID,138,VALID,0.170015,
2009-01-09, 00:23:00,VALID,919.61,VALID,0,VALID,100,VALID,-0.0849042,VALID,19.6771,VALID,113,VALID,0.174733,
2009-01-09, 00:24:00,VALID,919.595,VALID,0,VALID,100,VALID,-0.118866,VALID,19.6803,VALID,128,VALID,0.315799,
2009-01-09, 00:25:00,VALID,919.586,VALID,0,VALID,99.8769,VALID,-0.0849042,VALID,19.7163,VALID,131,VALID,0.574396,
2009-01-09, 00:26:00,VALID,919.583,VALID,0,VALID,99.7218,VALID,-0.101885,VALID,19.7555,VALID,126,VALID,0.405523,
2009-01-09, 00:27:00,VALID,919.571,VALID,0,VALID,99.6251,VALID,-0.101885,VALID,19.7617,VALID,103,VALID,0.298785,
2009-01-09, 00:28:00,VALID,919.573,VALID,0,VALID,99.545,VALID,-0.0679233,VALID,19.7577,VALID,125,VALID,0.773619,
2009-01-09, 00:29:00,VALID,919.569,VALID,0,VALID,99.5043,VALID,-0.0509425,VALID,19.7674,VALID,124,VALID,0.722756,
2009-01-09, 00:30:00,VALID,919.551,VALID,0,VALID,99.4992,VALID,-0.0169808,VALID,19.7807,VALID,113,VALID,0.304116,
2009-01-09, 00:31:00,VALID,919.531,VALID,0,VALID,99.4611,VALID,-0.0849042,VALID,19.7839,VALID,120,VALID,0.477148,
2009-01-09, 00:32:00,VALID,919.482,VALID,0,VALID,99.4471,VALID,-0.0509425,VALID,19.7842,VALID,122,VALID,0.427455,
2009-01-09, 00:33:00,VALID,919.453,VALID,0,VALID,99.4662,VALID,-0.0849042,VALID,19.7839,VALID,130,VALID,0.573438,
2009-01-09, 00:34:00,VALID,919.412,VALID,0,VALID,99.5374,VALID,-0.0509425,VALID,19.7647,VALID,129,VALID,0.622852,
2009-01-09, 00:35:00,VALID,919.393,VALID,0,VALID,99.5959,VALID,-0.0679233,VALID,19.7585,VALID,132,VALID,0.25918,
2009-01-09, 00:36:00,VALID,919.378,VALID,0,VALID,99.601,VALID,-0.0509425,VALID,19.7555,VALID,112,VALID,0.281436,
2009-01-09, 00:37:00,VALID,919.383,VALID,0,VALID,99.5666,VALID,-0.0849042,VALID,19.7422,VALID,117,VALID,0.236555,
2009-01-09, 00:38:00,VALID,919.386,VALID,0,VALID,99.4903,VALID,-0.0679233,VALID,19.749,VALID,127,VALID,0.985618,
2009-01-09, 00:39:00,VALID,919.391,VALID,0,VALID,99.3899,VALID,-0.0849042,VALID,19.748,VALID,107,VALID,0.215774,
2009-01-09, 00:40:00,VALID,919.403,VALID,0,VALID,99.3161,VALID,-0.0849042,VALID,19.7612,VALID,119,VALID,0.040625,
2009-01-09, 00:41:00,VALID,919.417,VALID,0,VALID,99.2767,VALID,-0.0849042,VALID,19.7552,VALID,116,VALID,0.0882457,
2009-01-09, 00:42:00,VALID,919.423,VALID,0,VALID,99.2602,VALID,-0.0509425,VALID,19.7417,VALID,127,VALID,0.343387,
2009-01-09, 00:43:00,VALID,919.43,VALID,0,VALID,99.2297,VALID,-0.0679233,VALID,19.7487,VALID,115,VALID,0.646341,
2009-01-09, 00:44:00,VALID,919.427,VALID,0,VALID,99.1394,VALID,-0.0849042,VALID,19.7482,VALID,138,VALID,1.11923,
2009-01-09, 00:45:00,VALID,919.415,VALID,0,VALID,99.0173,VALID,-0.0849042,VALID,19.7749,VALID,128,VALID,1.2766,
2009-01-09, 00:46:00,VALID,919.406,VALID,0,VALID,98.8139,VALID,-0.0849042,VALID,19.7877,VALID,129,VALID,2.02468,
2009-01-09, 00:47:00,VALID,919.38,VALID,0,VALID,98.6969,VALID,-0.0339617,VALID,19.8139,VALID,134,VALID,1.26683,
2009-01-09, 00:48:00,VALID,919.343,VALID,0,VALID,98.4858,VALID,-0.0679233,VALID,19.8134,VALID,148,VALID,1.91053,
2009-01-09, 00:49:00,VALID,919.324,VALID,0,VALID,98.1857,VALID,-0.101885,VALID,19.8723,VALID,150,VALID,2.25114,
2009-01-09, 00:50:00,VALID,919.298,VALID,0,VALID,97.7076,VALID,-0.0849042,VALID,19.9204,VALID,153,VALID,1.93316,
2009-01-09, 00:51:00,VALID,919.276,VALID,0,VALID,97.1989,VALID,-0.0849042,VALID,19.9791,VALID,130,VALID,2.45952,
2009-01-09, 00:52:00,VALID,919.24,VALID,0,VALID,96.839,VALID,-0.101885,VALID,20.0308,VALID,151,VALID,2.21584,
2009-01-09, 00:53:00,VALID,919.202,VALID,0,VALID,96.6865,VALID,-0.0679233,VALID,20.051,VALID,142,VALID,2.02544,
2009-01-09, 00:54:00,VALID,919.152,VALID,0,VALID,96.5377,VALID,-0.0509425,VALID,20.0438,VALID,137,VALID,1.81309,
2009-01-09, 00:55:00,VALID,919.11,VALID,0,VALID,96.5122,VALID,-0.0679233,VALID,20.044,VALID,137,VALID,1.43132,
2009-01-09, 00:56:00,VALID,919.085,VALID,0,VALID,96.5351,VALID,-0.0679233,VALID,20.0113,VALID,136,VALID,1.41741,
2009-01-09, 00:57:00,VALID,919.068,VALID,0,VALID,96.5707,VALID,-0.0679233,VALID,19.9953,VALID,133,VALID,1.19327,
2009-01-09, 00:58:00,VALID,919.068,VALID,0,VALID,96.5835,VALID,-0.0679233,VALID,19.9789,VALID,139,VALID,1.03125,
2009-01-09, 00:59:00,VALID,919.043,VALID,0,VALID,96.5479,VALID,-0.0339617,VALID,19.9791,VALID,137,VALID,1.37051,
2009-01-09, 01:00:00,VALID,919.025,VALID,0,VALID,96.3571,VALID,-0.0679233,VALID,20.0016,VALID,121,VALID,1.27591,
2009-01-09, 01:01:00,VALID,919.02,VALID,0,VALID,96.2121,VALID,-0.101885,VALID,20.0143,VALID,112,VALID,0.81468,
2009-01-09, 01:02:00,VALID,918.973,VALID,0,VALID,96.1918,VALID,-0.0849042,VALID,20.0218,VALID,126,VALID,0.960751,
2009-01-09, 01:03:00,VALID,918.945,VALID,0,VALID,96.2579,VALID,-0.118866,VALID,19.9958,VALID,140,VALID,2.12742,
2009-01-09, 01:04:00,VALID,918.936,VALID,0,VALID,96.2427,VALID,-0.0679233,VALID,19.9993,VALID,142,VALID,1.85156,
2009-01-09, 01:05:00,VALID,918.927,VALID,0,VALID,96.0735,VALID,-0.0849042,VALID,20.0086,VALID,143,VALID,1.99358,
2009-01-09, 01:06:00,VALID,918.917,VALID,0,VALID,95.8586,VALID,-0.0509425,VALID,20.028,VALID,141,VALID,1.92913,
2009-01-09, 01:07:00,VALID,918.918,VALID,0,VALID,95.748,VALID,-0.0679233,VALID,20.041,VALID,144,VALID,1.14558,
2009-01-09, 01:08:00,VALID,918.931,VALID,0,VALID,95.617,VALID,0,VALID,20.0525,VALID,136,VALID,2.04501,
2009-01-09, 01:09:00,VALID,918.934,VALID,0,VALID,95.4479,VALID,0.0339617,VALID,20.0717,VALID,150,VALID,0.943164,
2009-01-09, 01:10:00,VALID,918.943,VALID,0,VALID,95.2623,VALID,0.0169808,VALID,20.0712,VALID,114,VALID,1.55736,
2009-01-09, 01:11:00,VALID,918.959,VALID,0,VALID,95.1796,VALID,0.0169808,VALID,20.0819,VALID,130,VALID,1.4933,
2009-01-09, 01:12:00,VALID,918.987,VALID,0,VALID,95.205,VALID,0.0169808,VALID,20.0652,VALID,120,VALID,0.820313,
2009-01-09, 01:13:00,VALID,919.004,VALID,0,VALID,95.2597,VALID,0.0169808,VALID,20.0592,VALID,119,VALID,0.818132,
2009-01-09, 01:14:00,VALID,918.992,VALID,0,VALID,95.3907,VALID,0,VALID,20.023,VALID,106,VALID,0.796503,
2009-01-09, 01:15:00,VALID,918.985,VALID,0,VALID,95.4326,VALID,0.0169808,VALID,20.0165,VALID,145,VALID,0.498183,
2009-01-09, 01:16:00,VALID,918.953,VALID,0,VALID,95.3131,VALID,0.0509425,VALID,20.042,VALID,147,VALID,0.465701,
2009-01-09, 01:17:00,VALID,918.928,VALID,0,VALID,95.1236,VALID,0.0509425,VALID,20.0784,VALID,150,VALID,0.87066,
2009-01-09, 01:18:00,VALID,918.886,VALID,0,VALID,95.0003,VALID,0.0339617,VALID,20.0874,VALID,127,VALID,1.78329,
2009-01-09, 01:19:00,VALID,918.874,VALID,0,VALID,94.8286,VALID,0.0169808,VALID,20.1436,VALID,124,VALID,0.0788517,
2009-01-09, 01:20:00,VALID,918.835,VALID,0,VALID,94.7752,VALID,0,VALID,20.1204,VALID,130,VALID,0.492188,
2009-01-09, 01:21:00,VALID,918.83,VALID,0,VALID,94.9011,VALID,0.0339617,VALID,20.0941,VALID,142,VALID,0.757813,
2009-01-09, 01:22:00,VALID,918.814,VALID,0,VALID,95.0397,VALID,0.0169808,VALID,20.059,VALID,150,VALID,1.31032,
2009-01-09, 01:23:00,VALID,918.809,VALID,0,VALID,95.0563,VALID,-0.0849042,VALID,20.0542,VALID,117,VALID,0.695884,
2009-01-09, 01:24:00,VALID,918.795,VALID,0,VALID,95.0054,VALID,-0.0509425,VALID,20.0248,VALID,133,VALID,1.48668,
2009-01-09, 01:25:00,VALID,918.799,VALID,0,VALID,94.8986,VALID,-0.0339617,VALID,20.0478,VALID,129,VALID,1.77902,
2009-01-09, 01:26:00,VALID,918.781,VALID,0,VALID,94.6875,VALID,-0.0509425,VALID,20.0902,VALID,137,VALID,2.01637,
2009-01-09, 01:27:00,VALID,918.788,VALID,0,VALID,94.4573,VALID,-0.0339617,VALID,20.1256,VALID,149,VALID,1.53164,
2009-01-09, 01:28:00,VALID,918.81,VALID,0,VALID,94.4344,VALID,-0.0509425,VALID,20.1094,VALID,126,VALID,0.881597,
2009-01-09, 01:29:00,VALID,918.807,VALID,0,VALID,94.4243,VALID,-0.0509425,VALID,20.0835,VALID,139,VALID,1.60671,
2009-01-09, 01:30:00,VALID,918.815,VALID,0,VALID,94.334,VALID,-0.0679233,VALID,20.1092,VALID,131,VALID,1.49312,
2009-01-09, 01:31:00,VALID,918.798,VALID,0,VALID,94.1471,VALID,-0.101885,VALID,20.1386,VALID,140,VALID,1.19913,
2009-01-09, 01:32:00,VALID,918.785,VALID,0,VALID,94.1051,VALID,-0.0679233,VALID,20.1419,VALID,141,VALID,0.450321,
2009-01-09, 01:33:00,VALID,918.779,VALID,0,VALID,94.1801,VALID,-0.0679233,VALID,20.1221,VALID,141,VALID,0.394245,
2009-01-09, 01:34:00,VALID,918.78,VALID,0,VALID,94.1407,VALID,-0.0679233,VALID,20.1254,VALID,114,VALID,0.666016,
2009-01-09, 01:35:00,VALID,918.772,VALID,0,VALID,94.2005,VALID,-0.0509425,VALID,20.0922,VALID,134,VALID,1.45881,
2009-01-09, 01:36:00,VALID,918.749,VALID,0,VALID,94.2997,VALID,0,VALID,20.0897,VALID,141,VALID,1.88091,
2009-01-09, 01:37:00,VALID,918.722,VALID,0,VALID,94.3594,VALID,-0.0679233,VALID,20.0929,VALID,142,VALID,1.04427,
2009-01-09, 01:38:00,VALID,918.695,VALID,0,VALID,94.395,VALID,-0.0169808,VALID,20.0765,VALID,146,VALID,1.64172,
2009-01-09, 01:39:00,VALID,918.699,VALID,0,VALID,94.451,VALID,0,VALID,20.0537,VALID,132,VALID,1.02441,
2009-01-09, 01:40:00,VALID,918.686,VALID,0,VALID,94.5947,VALID,-0.0169808,VALID,20.0205,VALID,135,VALID,0.766868,
2009-01-09, 01:41:00,VALID,918.67,VALID,0,VALID,94.7612,VALID,-0.0169808,VALID,20.0081,VALID,115,VALID,0.95367,
2009-01-09, 01:42:00,VALID,918.648,VALID,0,VALID,94.896,VALID,-0.0509425,VALID,19.9791,VALID,119,VALID,0.348958,
2009-01-09, 01:43:00,VALID,918.626,VALID,0,VALID,95.1046,VALID,-0.0849042,VALID,19.9434,VALID,124,VALID,0.746652,
2009-01-09, 01:44:00,VALID,918.604,VALID,0,VALID,95.2534,VALID,-0.0339617,VALID,19.9439,VALID,133,VALID,1.51296,
2009-01-09, 01:45:00,VALID,918.573,VALID,0,VALID,95.2432,VALID,-0.0849042,VALID,19.9439,VALID,140,VALID,0.516006,
2009-01-09, 01:46:00,VALID,918.567,VALID,0,VALID,95.1605,VALID,-0.0339617,VALID,19.9796,VALID,126,VALID,0.482013,
2009-01-09, 01:47:00,VALID,918.546,VALID,0,VALID,94.8757,VALID,-0.0679233,VALID,20.0278,VALID,140,VALID,1.16229,
2009-01-09, 01:48:00,VALID,918.53,VALID,0,VALID,94.5222,VALID,-0.0679233,VALID,20.0859,VALID,145,VALID,1.27891,
2009-01-09, 01:49:00,VALID,918.536,VALID,0,VALID,94.2564,VALID,-0.0679233,VALID,20.1251,VALID,132,VALID,0.564631,
2009-01-09, 01:50:00,VALID,918.533,VALID,0,VALID,94.2386,VALID,-0.0679233,VALID,20.1291,VALID,126,VALID,0.527902,
2009-01-09, 01:51:00,VALID,918.55,VALID,0,VALID,94.3581,VALID,-0.0339617,VALID,20.0899,VALID,107,VALID,0.102604,
2009-01-09, 01:52:00,VALID,918.567,VALID,0,VALID,94.5819,VALID,-0.0679233,VALID,20.0248,VALID,106,VALID,0.0601562,
2009-01-09, 01:53:00,VALID,918.566,VALID,0,VALID,94.9278,VALID,-0.0509425,VALID,19.9861,VALID,131,VALID,0.263765,
2009-01-09, 01:54:00,VALID,918.567,VALID,0,VALID,95.1326,VALID,-0.0509425,VALID,19.9571,VALID,125,VALID,0.18471,
2009-01-09, 01:55:00,VALID,918.578,VALID,0,VALID,95.3271,VALID,-0.0849042,VALID,19.9209,VALID,118,VALID,0.0012718,
2009-01-09, 01:56:00,VALID,918.591,VALID,0,VALID,95.4517,VALID,-0.0339617,VALID,19.9017,VALID,88,VALID,0.245276,
2009-01-09, 01:57:00,VALID,918.591,VALID,0,VALID,95.3945,VALID,-0.0339617,VALID,19.9212,VALID,109,VALID,0.427379,
2009-01-09, 01:58:00,VALID,918.595,VALID,0,VALID,95.2038,VALID,-0.0169808,VALID,19.9696,VALID,92,VALID,0,
2009-01-09, 01:59:00,VALID,918.589,VALID,0,VALID,95.055,VALID,-0.0679233,VALID,19.9861,VALID,80,VALID,0.36319,
2009-01-09, 02:00:00,VALID,918.565,VALID,0,VALID,94.9304,VALID,-0.0509425,VALID,19.9893,VALID,44,VALID,0.236861,
2009-01-09, 02:01:00,VALID,918.55,VALID,0,VALID,94.8541,VALID,-0.0169808,VALID,20.0086,VALID,47,VALID,0,
2009-01-09, 02:02:00,VALID,918.531,VALID,0,VALID,94.7422,VALID,-0.0339617,VALID,20.0178,VALID,56,VALID,0,
2009-01-09, 02:03:00,VALID,918.508,VALID,0,VALID,94.7053,VALID,-0.0509425,VALID,20.0245,VALID,56,VALID,0,
2009-01-09, 02:04:00,VALID,918.5,VALID,0,VALID,94.8032,VALID,-0.0339617,VALID,20.0046,VALID,56,VALID,0,
2009-01-09, 02:05:00,VALID,918.497,VALID,0,VALID,94.9189,VALID,-0.0679233,VALID,19.9991,VALID,56,VALID,0,
2009-01-09, 02:06:00,VALID,918.496,VALID,0,VALID,94.9469,VALID,-0.101885,VALID,19.9831,VALID,56,VALID,0,
2009-01-09, 02:07:00,VALID,918.497,VALID,0,VALID,95.1453,VALID,-0.0679233,VALID,19.9636,VALID,56,VALID,0,
2009-01-09, 02:08:00,VALID,918.502,VALID,0,VALID,95.3271,VALID,-0.0509425,VALID,19.9307,VALID,56,VALID,0,
2009-01-09, 02:09:00,VALID,918.492,VALID,0,VALID,95.5509,VALID,-0.0679233,VALID,19.8883,VALID,56,VALID,0,
2009-01-09, 02:10:00,VALID,918.481,VALID,0,VALID,95.7823,VALID,-0.0339617,VALID,19.8461,VALID,57,VALID,0,
2009-01-09, 02:11:00,VALID,918.464,VALID,0,VALID,95.879,VALID,-0.0339617,VALID,19.8041,VALID,57,VALID,0,
2009-01-09, 02:12:00,VALID,918.452,VALID,0,VALID,96.043,VALID,-0.0509425,VALID,19.7714,VALID,57,VALID,0,
2009-01-09, 02:13:00,VALID,918.448,VALID,0,VALID,96.1854,VALID,-0.0679233,VALID,19.7482,VALID,57,VALID,0,
2009-01-09, 02:14:00,VALID,918.431,VALID,0,VALID,96.2503,VALID,-0.0169808,VALID,19.7357,VALID,59,VALID,0,
2009-01-09, 02:15:00,VALID,918.405,VALID,0,VALID,96.4054,VALID,-0.0339617,VALID,19.7063,VALID,64,VALID,0,
2009-01-09, 02:16:00,VALID,918.397,VALID,0,VALID,96.5351,VALID,-0.0169808,VALID,19.6736,VALID,64,VALID,0,
2009-01-09, 02:17:00,VALID,918.386,VALID,0,VALID,96.7043,VALID,-0.0169808,VALID,19.6574,VALID,64,VALID,0,
2009-01-09, 02:18:00,VALID,918.369,VALID,0,VALID,96.8696,VALID,0,VALID,19.6154,VALID,64,VALID,0,
2009-01-09, 02:19:00,VALID,918.362,VALID,0,VALID,97.0247,VALID,0,VALID,19.5827,VALID,64,VALID,0,
2009-01-09, 02:20:00,VALID,918.348,VALID,0,VALID,97.1722,VALID,-0.0339617,VALID,19.5802,VALID,64,VALID,0,
2009-01-09, 02:21:00,VALID,918.349,VALID,0,VALID,97.2154,VALID,0,VALID,19.567,VALID,64,VALID,0,
2009-01-09, 02:22:00,VALID,918.352,VALID,0,VALID,97.2879,VALID,-0.0339617,VALID,19.5406,VALID,64,VALID,0,
2009-01-09, 02:23:00,VALID,918.347,VALID,0,VALID,97.4265,VALID,-0.169808,VALID,19.5293,VALID,69,VALID,0,
2009-01-09, 02:24:00,VALID,918.349,VALID,0,VALID,97.5054,VALID,-0.152827,VALID,19.5228,VALID,73,VALID,0,
2009-01-09, 02:25:00,VALID,918.357,VALID,0,VALID,97.555,VALID,-0.186789,VALID,19.5291,VALID,73,VALID,0,
2009-01-09, 02:26:00,VALID,918.359,VALID,0,VALID,97.5791,VALID,-0.169808,VALID,19.5326,VALID,73,VALID,0,
2009-01-09, 02:27:00,VALID,918.352,VALID,0,VALID,97.6465,VALID,-0.186789,VALID,19.5331,VALID,74,VALID,0,
2009-01-09, 02:28:00,VALID,918.36,VALID,0,VALID,97.6796,VALID,-0.135847,VALID,19.5156,VALID,75,VALID,0,
2009-01-09, 02:29:00,VALID,918.358,VALID,0,VALID,97.6503,VALID,-0.169808,VALID,19.5131,VALID,75,VALID,0,
2009-01-09, 02:30:00,VALID,918.351,VALID,0,VALID,97.6834,VALID,-0.169808,VALID,19.5031,VALID,75,VALID,0,
2009-01-09, 02:31:00,VALID,918.348,VALID,0,VALID,97.7813,VALID,-0.135847,VALID,19.4866,VALID,78,VALID,0,
2009-01-09, 02:32:00,VALID,918.344,VALID,0,VALID,97.8373,VALID,-0.135847,VALID,19.4966,VALID,78,VALID,0,
2009-01-09, 02:33:00,VALID,918.349,VALID,0,VALID,97.8474,VALID,-0.118866,VALID,19.4934,VALID,78,VALID,0,
2009-01-09, 02:34:00,VALID,918.342,VALID,0,VALID,97.869,VALID,-0.152827,VALID,19.4834,VALID,78,VALID,0,
2009-01-09, 02:35:00,VALID,918.345,VALID,0,VALID,97.9593,VALID,-0.152827,VALID,19.4807,VALID,78,VALID,0,
2009-01-09, 02:36:00,VALID,918.344,VALID,0,VALID,97.9759,VALID,-0.118866,VALID,19.4707,VALID,78,VALID,0,
2009-01-09, 02:37:00,VALID,918.333,VALID,0,VALID,98.028,VALID,-0.118866,VALID,19.4415,VALID,78,VALID,0,
2009-01-09, 02:38:00,VALID,918.339,VALID,0,VALID,98.1806,VALID,0.0849042,VALID,19.4126,VALID,78,VALID,0,
2009-01-09, 02:39:00,VALID,918.327,VALID,0,VALID,98.2721,VALID,0.0849042,VALID,19.3929,VALID,78,VALID,0,
2009-01-09, 02:40:00,VALID,918.321,VALID,0,VALID,98.384,VALID,0.0679233,VALID,19.3766,VALID,78,VALID,0,
2009-01-09, 02:41:00,VALID,918.317,VALID,0,VALID,98.4527,VALID,0.0679233,VALID,19.3736,VALID,78,VALID,0,
2009-01-09, 02:42:00,VALID,918.304,VALID,0,VALID,98.5265,VALID,0.0509425,VALID,19.3704,VALID,78,VALID,0,
2009-01-09, 02:43:00,VALID,918.282,VALID,0,VALID,98.6015,VALID,0.0339617,VALID,19.3671,VALID,78,VALID,0,
2009-01-09, 02:44:00,VALID,918.254,VALID,0,VALID,98.6613,VALID,0.0849042,VALID,19.3704,VALID,78,VALID,0,
2009-01-09, 02:45:00,VALID,918.231,VALID,0,VALID,98.5989,VALID,0.0849042,VALID,19.3961,VALID,78,VALID,0,
2009-01-09, 02:46:00,VALID,918.2,VALID,0,VALID,98.5214,VALID,0.0679233,VALID,19.4255,VALID,351,VALID,0.116461,
2009-01-09, 02:47:00,VALID,918.161,VALID,0,VALID,98.4006,VALID,0.0849042,VALID,19.4545,VALID,262,VALID,0,
2009-01-09, 02:48:00,VALID,918.16,VALID,0,VALID,98.1831,VALID,0.0509425,VALID,19.5002,VALID,262,VALID,0,
2009-01-09, 02:49:00,VALID,918.141,VALID,0,VALID,97.9797,VALID,0.0849042,VALID,19.5418,VALID,261,VALID,0,
2009-01-09, 02:50:00,VALID,918.143,VALID,0,VALID,97.8093,VALID,0.0509425,VALID,19.5843,VALID,255,VALID,0,
2009-01-09, 02:51:00,VALID,918.137,VALID,0,VALID,97.6732,VALID,0.0849042,VALID,19.6037,VALID,252,VALID,0,
2009-01-09, 02:52:00,VALID,918.156,VALID,0,VALID,97.5766,VALID,0.0509425,VALID,19.6065,VALID,252,VALID,0,
2009-01-09, 02:53:00,VALID,918.154,VALID,0,VALID,97.4876,VALID,-0.0169808,VALID,19.6179,VALID,252,VALID,0.0572351,
2009-01-09, 02:54:00,VALID,918.166,VALID,0,VALID,97.4583,VALID,-0.0169808,VALID,19.6179,VALID,252,VALID,0,
2009-01-09, 02:55:00,VALID,918.178,VALID,0,VALID,97.4952,VALID,-0.0339617,VALID,19.6149,VALID,252,VALID,0,
2009-01-09, 02:56:00,VALID,918.196,VALID,0,VALID,97.5257,VALID,0,VALID,19.5848,VALID,247,VALID,0.0598323,
2009-01-09, 02:57:00,VALID,918.205,VALID,0,VALID,97.616,VALID,-0.0169808,VALID,19.5693,VALID,215,VALID,0.105015,
2009-01-09, 02:58:00,VALID,918.196,VALID,0,VALID,97.7737,VALID,0.0169808,VALID,19.5436,VALID,211,VALID,0,
2009-01-09, 02:59:00,VALID,918.192,VALID,0,VALID,97.8767,VALID,0,VALID,19.5266,VALID,211,VALID,0,
2009-01-09, 03:00:00,VALID,918.187,VALID,0,VALID,97.9441,VALID,-0.0339617,VALID,19.5239,VALID,211,VALID,0,
2009-01-09, 03:01:00,VALID,918.163,VALID,0,VALID,98.1005,VALID,-0.0169808,VALID,19.5136,VALID,247,VALID,0,
2009-01-09, 03:02:00,VALID,918.154,VALID,0,VALID,98.2073,VALID,0,VALID,19.5099,VALID,246,VALID,0,
2009-01-09, 03:03:00,VALID,918.164,VALID,0,VALID,98.295,VALID,-0.0169808,VALID,19.5201,VALID,245,VALID,0.0522693,
2009-01-09, 03:04:00,VALID,918.16,VALID,0,VALID,98.3319,VALID,-0.0339617,VALID,19.5336,VALID,242,VALID,0.00486111,
2009-01-09, 03:05:00,VALID,918.166,VALID,0,VALID,98.3497,VALID,-0.0339617,VALID,19.5266,VALID,219,VALID,0.000347222,
2009-01-09, 03:06:00,VALID,918.17,VALID,0,VALID,98.2658,VALID,0,VALID,19.5109,VALID,219,VALID,0,
2009-01-09, 03:07:00,VALID,918.165,VALID,0,VALID,98.1615,VALID,-0.0169808,VALID,19.459,VALID,219,VALID,0,
2009-01-09, 03:08:00,VALID,918.174,VALID,0,VALID,98.2289,VALID,0.0849042,VALID,19.3664,VALID,219,VALID,0,
2009-01-09, 03:09:00,VALID,918.179,VALID,0,VALID,98.3662,VALID,0.101885,VALID,19.2791,VALID,219,VALID,0,
2009-01-09, 03:10:00,VALID,918.177,VALID,0,VALID,98.571,VALID,0.101885,VALID,19.1912,VALID,219,VALID,0,
2009-01-09, 03:11:00,VALID,918.172,VALID,0,VALID,98.8774,VALID,0.101885,VALID,19.1039,VALID,219,VALID,0,
2009-01-09, 03:12:00,VALID,918.172,VALID,0,VALID,99.1343,VALID,0.101885,VALID,19.042,VALID,219,VALID,0,
2009-01-09, 03:13:00,VALID,918.163,VALID,0,VALID,99.4865,VALID,0.101885,VALID,18.9744,VALID,219,VALID,0,
2009-01-09, 03:14:00,VALID,918.167,VALID,0,VALID,99.7358,VALID,0.101885,VALID,18.948,VALID,219,VALID,0,
2009-01-09, 03:15:00,VALID,918.168,VALID,0,VALID,99.9336,VALID,0.0849042,VALID,18.9255,VALID,219,VALID,0,
2009-01-09, 03:16:00,VALID,918.167,VALID,0,VALID,100,VALID,0.0849042,VALID,18.8896,VALID,219,VALID,0,
2009-01-09, 03:17:00,VALID,918.153,VALID,0,VALID,100,VALID,0.118866,VALID,18.8542,VALID,219,VALID,0,
2009-01-09, 03:18:00,VALID,918.152,VALID,0,VALID,100,VALID,0.0849042,VALID,18.8379,VALID,219,VALID,0,
2009-01-09, 03:19:00,VALID,918.146,VALID,0,VALID,100,VALID,0.101885,VALID,18.8375,VALID,219,VALID,0,
2009-01-09, 03:20:00,VALID,918.15,VALID,0,VALID,100,VALID,0.101885,VALID,18.825,VALID,76,VALID,0,
2009-01-09, 03:21:00,VALID,918.154,VALID,0,VALID,100,VALID,0.0679233,VALID,18.8155,VALID,42,VALID,0,
2009-01-09, 03:22:00,VALID,918.151,VALID,0,VALID,100,VALID,0.0169808,VALID,18.8317,VALID,37,VALID,0,
2009-01-09, 03:23:00,VALID,918.153,VALID,0,VALID,100,VALID,-0.0169808,VALID,18.8192,VALID,37,VALID,0,
2009-01-09, 03:24:00,VALID,918.152,VALID,0,VALID,100,VALID,0,VALID,18.8095,VALID,35,VALID,0,
2009-01-09, 03:25:00,VALID,918.143,VALID,0,VALID,100,VALID,-0.0169808,VALID,18.8222,VALID,36,VALID,0,
2009-01-09, 03:26:00,VALID,918.153,VALID,0,VALID,100,VALID,-0.0169808,VALID,18.8389,VALID,51,VALID,0,
2009-01-09, 03:27:00,VALID,918.148,VALID,0,VALID,100,VALID,0.0169808,VALID,18.8681,VALID,51,VALID,0,
2009-01-09, 03:28:00,VALID,918.147,VALID,0,VALID,100,VALID,-0.0169808,VALID,18.8841,VALID,51,VALID,0,
2009-01-09, 03:29:00,VALID,918.143,VALID,0,VALID,100,VALID,0.0169808,VALID,18.897,VALID,51,VALID,0,
2009-01-09, 03:30:00,VALID,918.148,VALID,0,VALID,100,VALID,0,VALID,18.907,VALID,51,VALID,0,
2009-01-09, 03:31:00,VALID,918.155,VALID,0,VALID,100,VALID,0.0169808,VALID,18.91,VALID,51,VALID,0,
2009-01-09, 03:32:00,VALID,918.159,VALID,0,VALID,100,VALID,0,VALID,18.91,VALID,51,VALID,0,
2009-01-09, 03:33:00,VALID,918.173,VALID,0,VALID,100,VALID,0.0169808,VALID,18.9332,VALID,51,VALID,0,
2009-01-09, 03:34:00,VALID,918.174,VALID,0,VALID,100,VALID,0.0169808,VALID,18.9429,VALID,51,VALID,0,
2009-01-09, 03:35:00,VALID,918.172,VALID,0,VALID,100,VALID,0,VALID,18.9492,VALID,51,VALID,0,
2009-01-09, 03:36:00,VALID,918.159,VALID,0,VALID,100,VALID,0,VALID,18.9624,VALID,51,VALID,0,
2009-01-09, 03:37:00,VALID,918.151,VALID,0,VALID,100,VALID,0.0169808,VALID,18.9587,VALID,53,VALID,0,